Retour au catalogue

COSMOS 1395

ActifNavigationLEO
NORAD 13382·PAYLOAD·🇷🇺 Russia

Lancé Jul 21, 1982 depuis Plesetsk Cosmodrome

Loading…

Prochains Passages (prochaines 24 heures)

TLE

FraisSource: Space-Track

Époque: Sep 14, 2026, 22:25 UTC

1 13382U 82073H   26257.93450774 -.00000003  00000-0  87860-4 0  9995
2 13382  74.0133 123.4437 0026404 127.2018 252.3318 12.42867444  3265

Suivez COSMOS 1395 en temps réel avec AllMySat

Download on the App Store